Keene, NH

3:25 AM EDT on July 21, 2017 (GMT -0400)
Dillant-Hopkins

Weather History for KEEN - June, 2013

Change the Weather History Date:

Friday, June 7, 2013

  Actual Average Record
Temperature  
Mean Temperature 53 °F -  
Max Temperature 55 °F 75 °F 93 °F (1999)
Min Temperature 51 °F 49 °F 31 °F (1958)
Degree Days  
Heating Degree Days 12    
Growing Degree Days 3 (Base 50)    
Moisture  
Dew Point 47 °F    
Average Humidity 79    
Maximum Humidity 88    
Minimum Humidity 72    
Precipitation  
Precipitation 0.00 in - - ()
Sea Level Pressure  
Sea Level Pressure 30.00 in    
Wind  
Wind Speed 3 mph (NNE)    
Max Wind Speed 12 mph    
Max Gust Speed 17 mph    
Visibility 9 miles    
Events      
Averages and records for this station are not official NWS values.
T = Trace of Precipitation, MM = Missing Value Source: NWS Daily Summary

Daily Weather History Graph

Daily Weather History Graph

Search for Another Location

Airport or City:

Trip Planner

Search our weather history database for the weather conditions in past years. The results will help you decide how hot, cold, wet, or windy it might be!

Date:

Astronomy

Jun. 07, 2013 Rise Set
Actual Time 5:10 AM EDT 8:25 PM EDT
Civil Twilight 4:35 AM EDT 9:00 PM EDT
Nautical Twilight 3:50 AM EDT 9:45 PM EDT
Astronomical Twilight 2:56 AM EDT 10:40 PM EDT
Moon 4:33 AM EDT (6/7) 7:35 PM EDT (6/7)
Length of Visible Light 16h 24m
Length of Day
15h 14m
Waning Crescent, 1% of the Moon is Illuminated
Jun 7
Waning Crescent
Jun 8
New
Jun 16
First Quarter
Jun 23
Full
Jun 30
Last Quarter

Hourly Weather History & Observations

Time (EDT) Temp. Dew Point Humidity Pressure Visibility Wind Dir Wind Speed Gust Speed Precip Events Conditions
12:15 AM 55.4 °F 48.2 °F 77% 30.11 in 10.0 mi Calm Calm - N/A   Overcast
12:35 AM 53.6 °F 48.2 °F 82% 30.11 in 10.0 mi Calm Calm - N/A   Overcast
12:55 AM 53.6 °F 50.0 °F 88% 30.09 in 10.0 mi ENE 3.5 mph - N/A   Overcast
1:15 AM 53.6 °F 48.2 °F 82% 30.08 in 8.0 mi Calm Calm - N/A   Mostly Cloudy
1:35 AM 53.6 °F 48.2 °F 82% 30.07 in 10.0 mi Calm Calm - N/A   Overcast
1:55 AM 53.6 °F 48.2 °F 82% 30.06 in 10.0 mi Calm Calm - N/A   Overcast
2:15 AM 53.6 °F 48.2 °F 82% 30.05 in 10.0 mi Calm Calm - N/A   Overcast
2:35 AM 53.6 °F 48.2 °F 82% 30.05 in 10.0 mi Calm Calm - N/A   Overcast
2:55 AM 53.6 °F 48.2 °F 82% 30.05 in 10.0 mi Calm Calm - N/A   Overcast
3:15 AM 53.6 °F 48.2 °F 82% 30.04 in 10.0 mi NNW 3.5 mph - N/A   Overcast
3:35 AM 53.6 °F 48.2 °F 82% 30.05 in 10.0 mi Calm Calm - N/A   Overcast
3:55 AM 53.6 °F 48.2 °F 82% 30.04 in 10.0 mi Calm Calm - N/A   Overcast
4:15 AM 53.6 °F 48.2 °F 82% 30.04 in 10.0 mi Calm Calm - N/A   Overcast
4:35 AM 53.6 °F 48.2 °F 82% 30.04 in 10.0 mi Calm Calm - N/A   Overcast
4:55 AM 53.6 °F 48.2 °F 82% 30.04 in 10.0 mi Calm Calm - N/A   Overcast
5:15 AM 53.6 °F 48.2 °F 82% 30.04 in 10.0 mi Calm Calm - N/A   Overcast
5:35 AM 53.6 °F 48.2 °F 82% 30.04 in 10.0 mi NNE 3.5 mph - N/A   Overcast
5:55 AM 53.6 °F 48.2 °F 82% 30.04 in 10.0 mi North 3.5 mph - N/A   Overcast
6:15 AM 53.6 °F 48.2 °F 82% 30.04 in 7.0 mi North 3.5 mph - N/A   Overcast
6:35 AM 53.6 °F 48.2 °F 82% 30.05 in 8.0 mi Calm Calm - N/A   Overcast
6:55 AM 53.6 °F 48.2 °F 82% 30.05 in 10.0 mi Calm Calm - N/A   Overcast
7:15 AM 53.6 °F 48.2 °F 82% 30.05 in 10.0 mi NW 3.5 mph - N/A   Overcast
7:35 AM 53.6 °F 46.4 °F 77% 30.05 in 10.0 mi Calm Calm - N/A   Overcast
7:55 AM 53.6 °F 46.4 °F 77% 30.05 in 10.0 mi NE 3.5 mph - N/A   Overcast
8:15 AM 53.6 °F 46.4 °F 77% 30.05 in 9.0 mi North 5.8 mph - N/A   Overcast
8:35 AM 53.6 °F 44.6 °F 72% 30.05 in 7.0 mi Calm Calm - N/A   Overcast
8:55 AM 53.6 °F 46.4 °F 77% 30.05 in 10.0 mi NNW 4.6 mph - N/A   Overcast
9:15 AM 53.6 °F 46.4 °F 77% 30.05 in 10.0 mi NNE 4.6 mph - N/A   Overcast
9:55 AM 53.6 °F 44.6 °F 72% 30.05 in 10.0 mi NNE 6.9 mph - N/A   Overcast
10:15 AM 53.6 °F 44.6 °F 72% 30.05 in 10.0 mi NNE 4.6 mph - N/A   Overcast
10:35 AM 53.6 °F 44.6 °F 72% 30.05 in 10.0 mi NNE 5.8 mph - N/A   Overcast
10:55 AM 51.8 °F 44.6 °F 76% 30.05 in 10.0 mi NNE 6.9 mph - N/A   Overcast
11:15 AM 51.8 °F 44.6 °F 76% 30.06 in 7.0 mi NNE 6.9 mph - N/A   Overcast
11:35 AM 51.8 °F 44.6 °F 76% 30.05 in 8.0 mi NNE 5.8 mph - N/A   Overcast
11:55 AM 51.8 °F 44.6 °F 76% 30.05 in 6.0 mi NNE 4.6 mph - N/A   Overcast
12:15 PM 51.8 °F 46.4 °F 82% 30.05 in 6.0 mi NNE 8.1 mph - N/A   Overcast
12:35 PM 51.8 °F 46.4 °F 82% 30.04 in 7.0 mi NE 8.1 mph - N/A   Overcast
12:55 PM 51.8 °F 46.4 °F 82% 30.04 in 9.0 mi NNE 4.6 mph - N/A   Overcast
1:15 PM 51.8 °F 46.4 °F 82% 30.03 in 8.0 mi NNE 4.6 mph - N/A   Overcast
1:35 PM 53.6 °F 46.4 °F 77% 30.03 in 8.0 mi NNE 4.6 mph - N/A   Overcast
1:55 PM 53.6 °F 46.4 °F 77% 30.02 in 7.0 mi NNE 5.8 mph - N/A   Overcast
2:15 PM 53.6 °F 46.4 °F 77% 30.02 in 8.0 mi NNE 6.9 mph - N/A   Overcast
2:35 PM 53.6 °F 46.4 °F 77% 30.02 in 7.0 mi NNE 4.6 mph - N/A   Overcast
2:55 PM 53.6 °F 48.2 °F 82% 30.01 in 8.0 mi NNE 5.8 mph - N/A   Overcast
3:35 PM 53.6 °F 48.2 °F 82% 30.00 in 8.0 mi NNE 6.9 mph - N/A   Overcast
3:55 PM 53.6 °F 48.2 °F 82% 29.99 in 7.0 mi North 5.8 mph - N/A   Overcast
4:15 PM 53.6 °F 48.2 °F 82% 29.98 in 7.0 mi North 4.6 mph - N/A   Overcast
4:35 PM 55.4 °F 48.2 °F 77% 29.97 in 7.0 mi NNE 4.6 mph - N/A   Overcast
4:55 PM 55.4 °F 48.2 °F 77% 29.96 in 6.0 mi NE 6.9 mph - N/A   Overcast
5:15 PM 55.4 °F 48.2 °F 77% 29.96 in 6.0 mi NNE 5.8 mph - N/A   Overcast
5:35 PM 55.4 °F 48.2 °F 77% 29.95 in 7.0 mi ENE 5.8 mph - N/A   Overcast
5:55 PM 55.4 °F 48.2 °F 77% 29.95 in 5.0 mi NNE 5.8 mph - N/A   Overcast
6:15 PM 55.4 °F 48.2 °F 77% 29.95 in 6.0 mi NNE 3.5 mph - N/A   Overcast
6:55 PM 55.4 °F 48.2 °F 77% 29.94 in 7.0 mi NNE 5.8 mph - N/A   Overcast
7:15 PM 55.4 °F 48.2 °F 77% 29.93 in 9.0 mi NE 8.1 mph - N/A   Overcast
7:35 PM 53.6 °F 48.2 °F 82% 29.93 in 9.0 mi NE 9.2 mph 17.3 mph N/A   Overcast
7:55 PM 53.6 °F 48.2 °F 82% 29.92 in 7.0 mi NNE 9.2 mph - N/A   Overcast
8:15 PM 53.6 °F 46.4 °F 77% 29.91 in 9.0 mi NE 11.5 mph 16.1 mph N/A   Overcast
8:35 PM 53.6 °F 46.4 °F 77% 29.89 in 10.0 mi NNE 5.8 mph 17.3 mph N/A   Overcast
8:55 PM 53.6 °F 46.4 °F 77% 29.90 in 10.0 mi ENE 4.6 mph - N/A   Overcast
9:15 PM 53.6 °F 46.4 °F 77% 29.90 in 7.0 mi NE 4.6 mph - N/A   Overcast
9:55 PM 53.6 °F 46.4 °F 77% 29.90 in 9.0 mi NNE 3.5 mph - N/A   Overcast
10:15 PM 51.8 °F 46.4 °F 82% 29.90 in 10.0 mi NE 9.2 mph 17.3 mph N/A   Overcast
10:35 PM 51.8 °F 46.4 °F 82% 29.90 in 10.0 mi NE 4.6 mph - N/A   Overcast
10:55 PM 51.8 °F 46.4 °F 82% 29.87 in 10.0 mi NNE 9.2 mph 17.3 mph N/A   Overcast
11:15 PM 51.8 °F 46.4 °F 82% 29.86 in 10.0 mi NE 5.8 mph - N/A   Overcast
11:35 PM 51.8 °F 46.4 °F 82% 29.87 in 10.0 mi NE 3.5 mph - N/A   Overcast
11:55 PM 51.8 °F 46.4 °F 82% 29.84 in 9.0 mi NNE 8.1 mph - N/A   Overcast